Location: Cosy Dell
(34.2789°N, 117.4537°W)
Time: 23:41:03
(UTC+00:00)

Cosmos 407 Rocket - Pass Details

Date: 14 July 2020
Orbit: 744 x 786 km, 74.0° (Epoch: 12 August)

Event Time Altitude Azimuth Distance (km) Brightness Sun altitude
Exits shadow 09:16:11 56° 11° (N) 930 4.1 -31.0°
Drops below altitude 10° 09:20:23 10° 16° (NNE) 2,350 6.9 -30.6°
Sets 09:22:47 0° 17° (NNE) 3,282 7.9 -30.4°
